[[{"header":{"parameterUnit":"m.s-1","parameterCategory":1,"la1":30.2991,"la2":30.254,"lo1":-89.0895,"lo2":-89.0444,"dy":0.0017,"dx":0.0017,"nx":28,"ny":28,"refTime":"2023-11-15T03:00:00:Z","depth":0,"parameterNumber":2,"parameterNumberName":"U-component_of_WINDS"},"data":[0,0,0,0,0,0,0,0,0,0,0,0,0,0,0,0,0,0,0,0,0,0,0,0,0,0,0,0,0,0,0,0,0,0,0,0,0,0,0,0,0,0,0,0,0,0,0,0,0,0,0,0,0,0,0,0,0,0,-4.2667,-4.267,0,-4.2881,-4.2884,-4.2886,-4.2878,-4.2875,-4.2872,-4.287,-4.3092,-4.31,-4.3109,0,0,0,0,0,0,0,0,0,0,0,0,0,-4.2255,-4.2263,-4.2667,-4.267,-4.2673,-4.2881,-4.2884,-4.2887,-4.2879,-4.2875,-4.2872,-4.2868,-4.3089,-4.3099,-4.3109,0,0,0,0,0,0,0,0,0,0,0,0,0,-4.2448,-4.2265,-4.2667,-4.2694,-4.2698,-4.288,-4.2884,-4.2888,-4.288,-4.2875,-4.2871,-4.2866,-4.3085,-4.3098,-4.3111,-4.3281,0,0,-4.3151,-4.3156,0,0,0,0,0,0,0,0,-4.2437,-4.2463,-4.2687,-4.2692,-4.2698,-4.2848,-4.282,-4.302,-4.2881,-4.2811,-4.2869,-4.2864,-4.3015,-4.3033,-4.3083,-4.3291,-4.3301,-4.3152,-4.316,-4.3165,-4.3169,0,0,0,0,0,0,0,-4.2424,-4.2454,-4.2752,-4.269,-4.2697,-4.2696,-4.2719,-4.2858,-4.2935,-4.2817,-4.2817,-4.2842,-4.3017,-4.3071,-4.3088,-4.3304,-4.3151,-4.3163,-4.3171,-4.3176,-4.3665,-4.367,0,0,0,0,0,0,-4.2404,-4.2443,-4.2745,-4.2758,-4.2554,-4.2707,-4.2732,-4.2805,-4.2934,-4.2949,-4.2845,-4.2841,-4.305,-4.3073,-4.3096,-4.3306,-4.3165,-4.3177,-4.3185,-4.366,-4.3666,-4.3672,0,0,0,0,0,0,-4.2396,-4.2431,-4.2737,-4.2601,-4.264,-4.2719,-4.28,-4.2811,-4.2865,-4.2955,-4.297,-4.2886,-4.3048,-4.3078,-4.3235,-4.3313,-4.3183,-4.3195,-4.3654,-4.3662,-4.3669,-4.3725,0,0,0,0,0,0,-4.2384,-4.2428,-4.2493,-4.2602,-4.2647,-4.2872,-4.2805,-4.2819,-4.2887,-4.2883,-4.2998,-4.3012,-4.3047,-4.3216,-4.3248,-4.3329,-4.3205,-4.3647,-4.3658,-4.3667,-4.3717,-4.3734,-4.3748,0,0,0,0,0,-4.2369,-4.25,-4.2496,-4.2533,-4.2729,-4.2876,-4.2902,-4.2938,-4.2894,-4.296,-4.3018,-4.3009,-4.3299,-4.3232,-4.3269,-4.3354,-4.3643,-4.3655,-4.3666,-4.371,-4.373,-4.3748,0,0,0,0,0,0,-4.2399,-4.2515,-4.2512,-4.2682,-4.2769,-4.2874,-4.2959,-4.2958,-4.306,-4.3052,-4.3093,-4.312,-4.3278,-4.3332,-4.3255,-4.3527,-4.3466,-4.3485,-4.3486,-4.3507,-4.3522,-4.3507,-4.3216,0,0,0,0,0,-4.2425,-4.2533,-4.2629,-4.277,-4.2814,-4.2879,-4.2944,-4.2965,-4.3057,-4.3094,-4.3163,-4.3254,-4.3366,-4.3439,-4.3547,-4.3724,-4.375,-4.3801,-4.3817,-4.3829,-4.3846,-4.3946,-4.397,-4.371,-4.371,-4.371,0,0,-4.248,-4.2557,-4.2623,-4.2778,-4.2848,-4.2961,-4.291,-4.3031,-4.3116,-4.3113,-4.3266,-4.332,-4.3425,-4.3593,-4.3671,-4.3643,-4.3924,-4.3844,-4.3853,-4.3864,-4.3961,-4.3985,-4.4007,-4.3718,-4.3717,-4.3715,0,0,-4.264,-4.2708,-4.2834,-4.2905,-4.3011,-4.3053,-4.3084,-4.319,-4.3225,-4.338,-4.338,-4.3482,-4.3673,-4.3748,-4.3811,-4.3999,-4.3995,-4.4033,-4.4117,-4.4214,-4.4234,-4.4253,-4.4322,-4.4347,-4.405,-4.405,-4.405,0,-4.2696,-4.2865,-4.2899,-4.3021,-4.309,-4.3092,-4.3221,-4.3288,-4.3424,-4.3473,-4.3439,-4.368,-4.375,-4.3937,-4.3983,-4.4033,-4.4071,-4.4021,-4.4228,-4.4247,-4.4265,-4.4332,-4.4358,-4.4054,-4.4053,-4.4053,-4.4053,0,-4.2929,-4.3047,-4.3136,-4.3267,-4.3346,-4.3471,-4.3525,-4.3601,-4.3615,-4.3661,-4.382,-4.3904,-4.4029,-4.4075,-4.4089,-4.4265,-4.4245,-4.4219,-4.4159,-4.4293,-4.4357,-4.4383,-4.406,-4.4058,-4.4057,-4.4056,0,0,-4.3114,-4.3263,-4.3295,-4.3356,-4.3473,-4.3565,-4.3691,-4.3813,-4.3878,-4.3972,-4.408,-4.4242,-4.422,-4.4292,-4.4314,-4.4399,-4.4546,-4.4364,-4.4367,-4.4397,-4.4748,-4.4767,-4.4796,-4.4543,-4.4548,-4.4552,-4.474,0,-4.3287,-4.3509,-4.3544,-4.374,-4.385,-4.3854,-4.3963,-4.4048,-4.4095,-4.4196,-4.4248,-4.4363,-4.4324,-4.4367,-4.4451,-4.451,-4.4617,-4.4497,-4.4646,-4.4651,-4.4622,-4.4829,-4.485,-4.5023,-4.4764,-4.4769,-4.4772,0,-4.3519,-4.3619,-4.3826,-4.393,-4.3978,-4.4075,-4.4191,-4.4287,-4.4384,-4.4412,-4.4493,-4.4506,-4.4638,-4.457,-4.4754,-4.4672,-4.4734,-4.4773,-4.478,-4.4797,-4.4721,-4.4854,-4.5079,-4.5106,-4.4811,-4.4808,-4.4805,0,-4.3636,-4.3822,-4.397,-4.4022,-4.4146,-4.4215,-4.4271,-4.4363,-4.4435,-4.4536,-4.4583,-4.4699,-4.4763,-4.4853,-4.4897,-4.4844,-4.5079,-4.5015,-4.5108,-4.5108,-4.5159,-4.5156,-4.54,-4.5196,-4.5196,-4.5195,-4.5195,0,-4.3827,-4.3954,-4.4025,-4.4116,-4.4259,-4.4299,-4.4439,-4.4493,-4.4575,-4.4678,-4.4688,-4.4785,-4.4836,-4.4942,-4.4977,-4.5126,-4.5154,-4.5182,-4.519,-4.5182,-4.5179,-4.5226,-4.5216,-4.5202,-4.5201,-4.52,-4.5198,0,-4.3982,-4.4034,-4.4197,-4.4301,-4.433,-4.4431,-4.4522,-4.4612,-4.4657,-4.4788,-4.4821,-4.4894,-4.5019,-4.5071,-4.5224,-4.5248,-4.5419,-4.5417,-4.5386,-4.539,-4.5481,-4.5472,-4.5765,-4.5807,-4.5573,-4.5576,-4.5577,0,-4.4101,-4.4199,-4.4314,-4.4383,-4.4441,-4.4552,-4.4626,-4.4668,-4.4745,-4.4863,-4.4939,-4.5063,-4.5165,-4.5364,-4.5432,-4.5549,-4.5552,-4.5646,-4.5569,-4.5559,-4.5556,-4.555,-4.5561,-4.5661,-4.5663,-4.5665,-4.5667,0,-4.4308,-4.4329,-4.4434,-4.4549,-4.4636,-4.4729,-4.4819,-4.4876,-4.4933,-4.5018,-4.5145,-4.5224,-4.538,-4.5505,-4.5626,-4.5684,-4.5687,-4.569,-4.5718,-4.5712,-4.5691,-4.5706,-4.5427,-4.5683,-4.5682,-4.5681,-4.568,-4.5679,-4.4451,-4.4539,-4.4634,-4.4751,-4.4823,-4.4908,-4.4998,-4.5055,-4.5162,-4.5292,-4.531,-4.5447,-4.5543,-4.5706,-4.5769,-4.5878,-4.5854,-4.5895,-4.5905,-4.5915,-4.5922,-4.5672,-4.59,-4.5899,-4.5899,-4.5899,-4.5898,0,-4.466,-4.4721,-4.4829,-4.4955,-4.5048,-4.504,-4.514,-4.5218,-4.5338,-4.5426,-4.5526,-4.5673,-4.5794,-4.5871,-4.5993,-4.6065,-4.6069,-4.6096,-4.6092,-4.6106,-4.5935,-4.5899,-4.6091,-4.6091,-4.6091,-4.6091,-4.6091,-4.6091,-4.478,-4.4929,-4.4962,-4.5147,-4.5208,-4.5341,-4.5399,-4.5478,-4.5549,-4.5713,-4.5813,-4.5862,-4.5947,-4.6075,-4.6186,-4.6206,-4.6252,-4.628,-4.6299,-4.6138,-4.6118,-4.6099,-4.6066,-4.6289,-4.629,-4.6462,-4.6463,-4.6464]},{"header":{"parameterUnit":"m.s-1","parameterCategory":1,"la1":30.2991,"la2":30.254,"lo1":-89.0895,"lo2":-89.0444,"dy":0.0017,"dx":0.0017,"nx":28,"ny":28,"refTime":"2023-11-15T03:00:00:Z","depth":0,"parameterNumber":3,"parameterNumberName":"V-component_of_WINDS"},"data":[0,0,0,0,0,0,0,0,0,0,0,0,0,0,0,0,0,0,0,0,0,0,0,0,0,0,0,0,0,0,0,0,0,0,0,0,0,0,0,0,0,0,0,0,0,0,0,0,0,0,0,0,0,0,0,0,0,0,-6.8375,-6.8375,0,-6.8383,-6.8383,-6.8383,-6.8274,-6.8271,-6.8268,-6.8265,-6.8271,-6.8274,-6.8277,0,0,0,0,0,0,0,0,0,0,0,0,0,-6.8264,-6.8267,-6.8375,-6.8375,-6.8375,-6.8383,-6.8383,-6.8383,-6.8274,-6.827,-6.8267,-6.8263,-6.827,-6.8274,-6.8277,0,0,0,0,0,0,0,0,0,0,0,0,0,-6.8296,-6.8268,-6.8375,-6.8322,-6.8317,-6.8383,-6.8383,-6.8383,-6.8275,-6.827,-6.8266,-6.8262,-6.8269,-6.8273,-6.8278,-6.8394,0,0,-6.8291,-6.8293,0,0,0,0,0,0,0,0,-6.8295,-6.83,-6.833,-6.8326,-6.8321,-6.8323,-6.8346,-6.8387,-6.8276,-6.8291,-6.8265,-6.826,-6.8292,-6.8294,-6.8305,-6.8394,-6.8394,-6.8291,-6.8294,-6.8296,-6.8297,0,0,0,0,0,0,0,-6.8292,-6.8299,-6.8378,-6.833,-6.8325,-6.8297,-6.8297,-6.8353,-6.8316,-6.8289,-6.8281,-6.8284,-6.8288,-6.8301,-6.8304,-6.8394,-6.8291,-6.8295,-6.8298,-6.83,-6.8578,-6.8583,0,0,0,0,0,0,-6.8298,-6.8298,-6.8378,-6.8378,-6.8296,-6.8303,-6.8302,-6.8327,-6.8315,-6.8309,-6.8288,-6.8279,-6.8296,-6.8299,-6.8304,-6.8439,-6.8296,-6.83,-6.8302,-6.8573,-6.8579,-6.8584,0,0,0,0,0,0,-6.8296,-6.8306,-6.8378,-6.8336,-6.8343,-6.8309,-6.8338,-6.8329,-6.8342,-6.8314,-6.8307,-6.8308,-6.8292,-6.8298,-6.8372,-6.8438,-6.8302,-6.8306,-6.8568,-6.8575,-6.8582,-6.871,0,0,0,0,0,0,-6.8293,-6.8306,-6.835,-6.8338,-6.8346,-6.8447,-6.8342,-6.8332,-6.835,-6.8338,-6.8331,-6.8325,-6.8289,-6.8366,-6.8377,-6.8441,-6.8309,-6.8562,-6.8571,-6.8579,-6.87,-6.8721,-6.8739,0,0,0,0,0,-6.8289,-6.8386,-6.8353,-6.8363,-6.8401,-6.8451,-6.8455,-6.8412,-6.8356,-6.8399,-6.8381,-6.8326,-6.8429,-6.8375,-6.8385,-6.8453,-6.8557,-6.8568,-6.8579,-6.8691,-6.8717,-6.8738,0,0,0,0,0,0,-6.8406,-6.8383,-6.8347,-6.8442,-6.8449,-6.8432,-6.8486,-6.844,-6.8463,-6.8451,-6.8396,-6.8396,-6.8479,-6.8473,-6.8413,-6.8564,-6.8483,-6.8496,-6.8565,-6.8589,-6.8608,-6.8607,-6.8313,0,0,0,0,0,-6.8443,-6.8486,-6.8464,-6.855,-6.8556,-6.8521,-6.8541,-6.8507,-6.8512,-6.8514,-6.8501,-6.8508,-6.8541,-6.8565,-6.8594,-6.8698,-6.8695,-6.875,-6.8769,-6.8785,-6.8797,-6.8851,-6.8875,-6.8619,-6.8619,-6.8619,0,0,-6.852,-6.8513,-6.8543,-6.8574,-6.8575,-6.862,-6.8524,-6.8576,-6.8608,-6.8521,-6.8591,-6.8582,-6.8585,-6.8675,-6.8714,-6.8673,-6.8867,-6.8799,-6.8812,-6.8815,-6.8865,-6.8889,-6.8911,-6.8627,-6.8625,-6.8624,0,0,-6.8683,-6.8682,-6.8754,-6.8757,-6.8761,-6.8737,-6.8754,-6.8744,-6.8734,-6.8803,-6.8739,-6.8777,-6.8836,-6.8841,-6.8851,-6.9015,-6.8964,-6.9026,-6.9128,-6.9181,-6.9201,-6.9219,-6.9277,-6.9299,-6.9039,-6.9039,-6.9039,0,-6.8778,-6.8844,-6.8796,-6.8852,-6.8867,-6.8791,-6.8863,-6.8868,-6.8881,-6.8893,-6.8846,-6.8919,-6.8916,-6.9005,-6.9045,-6.9056,-6.9074,-6.9027,-6.9202,-6.9219,-6.9235,-6.929,-6.9312,-6.9046,-6.9046,-6.9045,-6.9044,0,-6.896,-6.9006,-6.9063,-6.9078,-6.9099,-6.9163,-6.9125,-6.9152,-6.9116,-6.9097,-6.9167,-6.9161,-6.9188,-6.9206,-6.9172,-6.9291,-6.9265,-6.9212,-6.9129,-6.9268,-6.9318,-6.9339,-6.9057,-6.9054,-6.9052,-6.905,0,0,-6.9197,-6.9184,-6.9206,-6.9211,-6.9209,-6.9244,-6.9304,-6.933,-6.9354,-6.9365,-6.9414,-6.9466,-6.9416,-6.9428,-6.9393,-6.944,-6.957,-6.938,-6.9379,-6.9415,-6.97,-6.974,-6.9766,-6.9536,-6.954,-6.9543,-6.97,0,-6.9355,-6.9457,-6.9416,-6.9521,-6.9563,-6.9491,-6.9543,-6.9547,-6.953,-6.9563,-6.9544,-6.9582,-6.9513,-6.952,-6.9563,-6.9545,-6.9626,-6.9533,-6.958,-6.9583,-6.9582,-6.9792,-6.9835,-6.9983,-6.9719,-6.9722,-6.9725,0,-6.9553,-6.9573,-6.9682,-6.9672,-6.9688,-6.9736,-6.9756,-6.9789,-6.9791,-6.9776,-6.9789,-6.9744,-6.9801,-6.9719,-6.9797,-6.9735,-6.9751,-6.9745,-6.975,-6.9753,-6.9662,-6.98,-7.0029,-7.0052,-6.9756,-6.9753,-6.9751,0,-6.9714,-6.9768,-6.9841,-6.9847,-6.9838,-6.9873,-6.987,-6.9868,-6.9887,-6.9904,-6.9915,-6.994,-6.9953,-6.9973,-6.9935,-6.9879,-7.0018,-6.9933,-7.0006,-7.0008,-7.0039,-7.0037,-7.0274,-7.005,-7.005,-7.005,-7.0049,0,-6.9895,-6.9965,-6.9913,-6.9958,-7.0033,-6.9985,-7.0061,-7.005,-7.0049,-7.009,-7.0029,-7.0069,-7.0017,-7.0051,-7.0022,-7.009,-7.0097,-7.0085,-7.0077,-7.0091,-7.0093,-7.0101,-7.009,-7.0056,-7.0054,-7.0053,-7.0052,0,-7.0089,-7.0057,-7.0131,-7.0115,-7.0113,-7.0169,-7.0156,-7.0196,-7.0175,-7.0227,-7.0236,-7.0204,-7.0241,-7.0205,-7.024,-7.022,-7.0312,-7.0289,-7.0312,-7.0305,-7.038,-7.0374,-7.063,-7.0661,-7.0418,-7.0421,-7.0423,0,-7.0206,-7.0258,-7.0248,-7.0271,-7.0272,-7.031,-7.0329,-7.0283,-7.0304,-7.0311,-7.035,-7.0382,-7.0405,-7.0468,-7.0447,-7.0473,-7.045,-7.0538,-7.0453,-7.0466,-7.0451,-7.0448,-7.0453,-7.0555,-7.0558,-7.056,-7.0562,0,-7.0418,-7.0399,-7.0428,-7.0452,-7.0476,-7.0492,-7.0503,-7.0526,-7.0478,-7.0505,-7.0542,-7.056,-7.0596,-7.0628,-7.0648,-7.0644,-7.0596,-7.0589,-7.0607,-7.0622,-7.0633,-7.0628,-7.0358,-7.0583,-7.0581,-7.058,-7.0578,-7.0578,-7.0576,-7.0619,-7.0619,-7.0653,-7.0656,-7.0669,-7.0705,-7.0689,-7.0719,-7.0745,-7.0716,-7.0761,-7.0762,-7.0783,-7.0786,-7.082,-7.0783,-7.081,-7.0816,-7.0824,-7.0835,-7.0628,-7.0824,-7.0823,-7.0822,-7.0822,-7.0821,0,-7.0785,-7.0781,-7.0813,-7.0831,-7.0857,-7.0809,-7.0819,-7.0845,-7.0885,-7.089,-7.0914,-7.0957,-7.0988,-7.0969,-7.0996,-7.1027,-7.1005,-7.1035,-7.1032,-7.1032,-7.0867,-7.0848,-7.1052,-7.1052,-7.1052,-7.1052,-7.1052,-7.1052,-7.0896,-7.0966,-7.0947,-7.1017,-7.1012,-7.1057,-7.1067,-7.1077,-7.1081,-7.1131,-7.1157,-7.1144,-7.1139,-7.1165,-7.1191,-7.1185,-7.1197,-7.1236,-7.1221,-7.1067,-7.1044,-7.1022,-7.1005,-7.1239,-7.1239,-7.1384,-7.1385,-7.1386]}]]